Regional Weather Roundup
Issued by NWS

Home | Current Version | Previous Version | Text Only | Print | Product List | Glossary Off
Versions: 1 2 3 4 5 6 7 8 9 10 11 12 13 14 15 16 17 18 19 20 21 22 23 24 25 26 27 28 29 30 31 32 33 34 35 36 37 38 39 40 41 42 43 44 45 46 47 48 49 50

000
ASUS43 KFSD 011802
RWRSD

WEATHER ROUNDUP FOR SOUTH DAKOTA
NATIONAL WEATHER SERVICE SIOUX FALLS SD
1200 PM CST SUN FEB 01 2015

NOTE: "FAIR" INDICATES FEW OR NO CLOUDS BELOW 12,000 FEET WITH NO
SIGNIFICANT WEATHER AND/OR OBSTRUCTIONS TO VISIBILITY.


SDZ001>005-009-010-012>017-011900-
NORTHWEST AND NORTH CENTRAL SOUTH DAKOTA

CITY           SKY/WX    TMP DP  RH WIND       PRES   REMARKS
BUFFALO          N/A      4  -2  76 W10       30.29S WCI -11
FAITH            N/A      3  -4  72 N14       30.40F WCI -15
MOBRIDGE       SUNNY      1 -11  57 N14       30.45R WCI -17
$$

SDZ012>016-024>037-041>051-057-063-072>074-011900-
SOUTHWEST AND SOUTH CENTRAL SOUTH DAKOTA

CITY           SKY/WX    TMP DP  RH WIND       PRES   REMARKS
RAPID CTY ARPT SUNNY      8   4  83 N20       30.35S WCI -11
PIERRE         LGT SNOW   0  -7  72 NW21      30.46R WCI -22
CUSTER         MOSUNNY   13  -1  54 VRB6      30.13R WCI   4
ELLSWORTH AFB  SUNNY      7   4  86 N16       30.34F WCI -11
PHILIP         CLOUDY     5  -4  66 N18       30.45R WCI -15
PINE RIDGE     PTSUNNY    6  -1  73 NW13G24   30.35R WCI -10
WINNER         LGT SNOW   1  -6  72 N21       30.39S WCI -21
$$

SDZ004>011-016>023-039-040-011900-
NORTHEAST SOUTH DAKOTA

CITY           SKY/WX    TMP DP  RH WIND       PRES   REMARKS
ABERDEEN       PTSUNNY    1 -11  57 N18       30.46F WCI -20
WATERTOWN      CLOUDY     2  -4  76 N17       30.31S WCI -18
SISSETON         N/A      0 -10  63 N20       30.43F WCI -22
$$

SDZ017-020-022-023-036>040-048>070-011900-
SOUTHEAST SOUTH DAKOTA

CITY           SKY/WX    TMP DP  RH WIND       PRES   REMARKS
SIOUX FALLS    LGT SNOW   7   1  76 N23G31    30.25R BLWGSNOWWCI -14
HURON          LGT SNOW   2  -6  69 N25       30.40F WCI -22
MITCHELL       MIX PCPN   2  -3  80 N25G32    30.38S WCI -22
YANKTON        PTSUNNY    7   0  72 NW23      30.30R VSB 1   WCI -14
$$

ABBREVIATIONS USED IN REMARKS
   TC - TEMPERATURE IN CELSIUS
  WCI - WIND CHILL INDEX
   HX - HEAT INDEX
  VSB - VISIBILITY




USA.gov is the U.S. government's official web portal to all federal, state and local government web resources and services.